,,Stat6,,Stat2,,Stat8,,Stat9,,Stat10,,Wind1,,Wind1,
time,status,PA1M_AVG,status,PR1M_SUM,status,RH1M_AVG,status,SR1M_AVG,status,TA1M_AVG,status,W1dAve1m,status,W1sAve1m,
2008-07-01, 00:00:00,VALID,919.455,VALID,0,VALID,100,VALID,0.0169808,VALID,18.9337,VALID,140,VALID,0,
2008-07-01, 00:01:00,VALID,919.452,VALID,0,VALID,100,VALID,0,VALID,18.9501,VALID,140,VALID,0,
2008-07-01, 00:02:00,VALID,919.444,VALID,0,VALID,100,VALID,-0.0169808,VALID,18.9564,VALID,140,VALID,0,
2008-07-01, 00:03:00,VALID,919.437,VALID,0,VALID,100,VALID,-0.0169808,VALID,18.9536,VALID,140,VALID,0,
2008-07-01, 00:04:00,VALID,919.427,VALID,0,VALID,100,VALID,-0.0339617,VALID,18.9531,VALID,140,VALID,0,
2008-07-01, 00:05:00,VALID,919.435,VALID,0,VALID,100,VALID,0,VALID,18.9696,VALID,140,VALID,0,
2008-07-01, 00:06:00,VALID,919.43,VALID,0,VALID,100,VALID,-0.0169808,VALID,18.9826,VALID,140,VALID,0,
2008-07-01, 00:07:00,VALID,919.431,VALID,0,VALID,100,VALID,0,VALID,18.9761,VALID,140,VALID,0,
2008-07-01, 00:08:00,VALID,919.43,VALID,0,VALID,100,VALID,0.0169808,VALID,18.9726,VALID,140,VALID,0,
2008-07-01, 00:09:00,VALID,919.427,VALID,0,VALID,100,VALID,0.0169808,VALID,18.9694,VALID,140,VALID,0,
2008-07-01, 00:10:00,VALID,919.432,VALID,0,VALID,100,VALID,0.0169808,VALID,18.9661,VALID,140,VALID,0,
2008-07-01, 00:11:00,VALID,919.422,VALID,0,VALID,100,VALID,0,VALID,18.9566,VALID,140,VALID,0,
2008-07-01, 00:12:00,VALID,919.415,VALID,0,VALID,100,VALID,0,VALID,18.9235,VALID,140,VALID,0,
2008-07-01, 00:13:00,VALID,919.409,VALID,0,VALID,100,VALID,-0.0169808,VALID,18.9142,VALID,140,VALID,0,
2008-07-01, 00:14:00,VALID,919.401,VALID,0,VALID,100,VALID,0,VALID,18.8783,VALID,140,VALID,0,
2008-07-01, 00:15:00,VALID,919.394,VALID,0,VALID,100,VALID,0.0339617,VALID,18.875,VALID,140,VALID,0,
2008-07-01, 00:16:00,VALID,919.381,VALID,0,VALID,100,VALID,0,VALID,18.8558,VALID,140,VALID,0,
2008-07-01, 00:17:00,VALID,919.372,VALID,0,VALID,100,VALID,0,VALID,18.8431,VALID,139,VALID,0,
2008-07-01, 00:18:00,VALID,919.36,VALID,0,VALID,100,VALID,0,VALID,18.8299,VALID,114,VALID,0,
2008-07-01, 00:19:00,VALID,919.36,VALID,0,VALID,100,VALID,-0.0169808,VALID,18.8433,VALID,118,VALID,0,
2008-07-01, 00:20:00,VALID,919.359,VALID,0,VALID,100,VALID,0,VALID,18.866,VALID,112,VALID,0,
2008-07-01, 00:21:00,VALID,919.354,VALID,0,VALID,100,VALID,0,VALID,18.8785,VALID,105,VALID,0,
2008-07-01, 00:22:00,VALID,919.349,VALID,0,VALID,100,VALID,0.0339617,VALID,18.9337,VALID,119,VALID,0,
2008-07-01, 00:23:00,VALID,919.347,VALID,0,VALID,100,VALID,0,VALID,18.9858,VALID,136,VALID,0.781783,
2008-07-01, 00:24:00,VALID,919.344,VALID,0,VALID,100,VALID,-0.118866,VALID,18.9998,VALID,135,VALID,1.0238,
2008-07-01, 00:25:00,VALID,919.341,VALID,0,VALID,100,VALID,-0.101885,VALID,19.01,VALID,138,VALID,0.665777,
2008-07-01, 00:26:00,VALID,919.327,VALID,0,VALID,100,VALID,-0.101885,VALID,18.9998,VALID,138,VALID,0.386161,
2008-07-01, 00:27:00,VALID,919.33,VALID,0,VALID,100,VALID,-0.101885,VALID,18.9868,VALID,140,VALID,0.0779433,
2008-07-01, 00:28:00,VALID,919.305,VALID,0,VALID,100,VALID,-0.0849042,VALID,18.977,VALID,140,VALID,0,
2008-07-01, 00:29:00,VALID,919.29,VALID,0,VALID,100,VALID,-0.101885,VALID,19.0065,VALID,140,VALID,0,
2008-07-01, 00:30:00,VALID,919.283,VALID,0,VALID,100,VALID,-0.101885,VALID,19,VALID,140,VALID,0,
2008-07-01, 00:31:00,VALID,919.252,VALID,0,VALID,100,VALID,-0.0509425,VALID,18.9898,VALID,140,VALID,0,
2008-07-01, 00:32:00,VALID,919.243,VALID,0,VALID,100,VALID,-0.0849042,VALID,19,VALID,140,VALID,0,
2008-07-01, 00:33:00,VALID,919.217,VALID,0,VALID,100,VALID,-0.0509425,VALID,18.9703,VALID,140,VALID,0,
2008-07-01, 00:34:00,VALID,919.196,VALID,0,VALID,100,VALID,-0.0339617,VALID,18.9539,VALID,140,VALID,0,
2008-07-01, 00:35:00,VALID,919.194,VALID,0,VALID,100,VALID,-0.0339617,VALID,18.9573,VALID,140,VALID,0,
2008-07-01, 00:36:00,VALID,919.182,VALID,0,VALID,100,VALID,-0.0509425,VALID,18.9092,VALID,140,VALID,0,
2008-07-01, 00:37:00,VALID,919.165,VALID,0,VALID,100,VALID,-0.0849042,VALID,18.8406,VALID,140,VALID,0,
2008-07-01, 00:38:00,VALID,919.163,VALID,0,VALID,100,VALID,-0.0509425,VALID,18.8341,VALID,140,VALID,0,
2008-07-01, 00:39:00,VALID,919.14,VALID,0,VALID,100,VALID,0.0169808,VALID,18.8326,VALID,140,VALID,0,
2008-07-01, 00:40:00,VALID,919.145,VALID,0,VALID,100,VALID,0.0169808,VALID,18.8262,VALID,140,VALID,0,
2008-07-01, 00:41:00,VALID,919.128,VALID,0,VALID,100,VALID,0.0169808,VALID,18.8072,VALID,140,VALID,0,
2008-07-01, 00:42:00,VALID,919.123,VALID,0,VALID,100,VALID,0.0509425,VALID,18.7518,VALID,140,VALID,0,
2008-07-01, 00:43:00,VALID,919.09,VALID,0,VALID,100,VALID,0.0849042,VALID,18.6999,VALID,140,VALID,0,
2008-07-01, 00:44:00,VALID,919.083,VALID,0,VALID,100,VALID,0.0339617,VALID,18.6545,VALID,140,VALID,0,
2008-07-01, 00:45:00,VALID,919.073,VALID,0,VALID,100,VALID,0.0339617,VALID,18.6283,VALID,140,VALID,0,
2008-07-01, 00:46:00,VALID,919.057,VALID,0,VALID,100,VALID,0.0679233,VALID,18.6121,VALID,140,VALID,0,
2008-07-01, 00:47:00,VALID,919.051,VALID,0,VALID,100,VALID,0.0339617,VALID,18.6026,VALID,140,VALID,0,
2008-07-01, 00:48:00,VALID,919.044,VALID,0,VALID,100,VALID,0.0339617,VALID,18.6253,VALID,140,VALID,0,
2008-07-01, 00:49:00,VALID,919.033,VALID,0,VALID,100,VALID,0.0339617,VALID,18.7031,VALID,140,VALID,0,
2008-07-01, 00:50:00,VALID,919.027,VALID,0,VALID,100,VALID,0.0509425,VALID,18.771,VALID,140,VALID,0,
2008-07-01, 00:51:00,VALID,919.024,VALID,0,VALID,100,VALID,0.0169808,VALID,18.7842,VALID,140,VALID,0,
2008-07-01, 00:52:00,VALID,919.028,VALID,0,VALID,100,VALID,0.0509425,VALID,18.6997,VALID,140,VALID,0,
2008-07-01, 00:53:00,VALID,919.017,VALID,0,VALID,100,VALID,0.0169808,VALID,18.5936,VALID,136,VALID,0,
2008-07-01, 00:54:00,VALID,919.014,VALID,0,VALID,100,VALID,-0.0849042,VALID,18.5616,VALID,109,VALID,0,
2008-07-01, 00:55:00,VALID,918.994,VALID,0,VALID,100,VALID,-0.0509425,VALID,18.5973,VALID,107,VALID,0,
2008-07-01, 00:56:00,VALID,918.997,VALID,0,VALID,100,VALID,-0.0679233,VALID,18.6065,VALID,106,VALID,0,
2008-07-01, 00:57:00,VALID,918.974,VALID,0,VALID,100,VALID,-0.0509425,VALID,18.6429,VALID,106,VALID,0,
2008-07-01, 00:58:00,VALID,918.95,VALID,0,VALID,100,VALID,-0.0679233,VALID,18.6524,VALID,101,VALID,0,
2008-07-01, 00:59:00,VALID,918.929,VALID,0,VALID,100,VALID,-0.0509425,VALID,18.6559,VALID,80,VALID,0,
2008-07-01, 01:00:00,VALID,918.912,VALID,0,VALID,100,VALID,-0.0679233,VALID,18.5551,VALID,65,VALID,0,
2008-07-01, 01:01:00,VALID,918.887,VALID,0,VALID,100,VALID,-0.101885,VALID,18.5261,VALID,60,VALID,0,
2008-07-01, 01:02:00,VALID,918.873,VALID,0,VALID,100,VALID,-0.0509425,VALID,18.477,VALID,60,VALID,0,
2008-07-01, 01:03:00,VALID,918.851,VALID,0,VALID,100,VALID,-0.0509425,VALID,18.4935,VALID,49,VALID,0.355373,
2008-07-01, 01:04:00,VALID,918.813,VALID,0,VALID,100,VALID,-0.0679233,VALID,18.604,VALID,48,VALID,0.855859,
2008-07-01, 01:05:00,VALID,918.792,VALID,0,VALID,100,VALID,-0.0169808,VALID,18.6035,VALID,46,VALID,0.749112,
2008-07-01, 01:06:00,VALID,918.77,VALID,0,VALID,100,VALID,-0.0679233,VALID,18.5648,VALID,45,VALID,0.480639,
2008-07-01, 01:07:00,VALID,918.752,VALID,0,VALID,100,VALID,-0.0169808,VALID,18.5773,VALID,43,VALID,0.0110828,
2008-07-01, 01:08:00,VALID,918.723,VALID,0,VALID,100,VALID,-0.0169808,VALID,18.6098,VALID,333,VALID,0,
2008-07-01, 01:09:00,VALID,918.688,VALID,0,VALID,100,VALID,-0.0509425,VALID,18.6559,VALID,333,VALID,0,
2008-07-01, 01:10:00,VALID,918.655,VALID,0,VALID,100,VALID,-0.0339617,VALID,18.6682,VALID,333,VALID,0,
2008-07-01, 01:11:00,VALID,918.629,VALID,0,VALID,100,VALID,-0.0169808,VALID,18.6714,VALID,333,VALID,0,
2008-07-01, 01:12:00,VALID,918.595,VALID,0,VALID,100,VALID,-0.0339617,VALID,18.6746,VALID,333,VALID,0,
2008-07-01, 01:13:00,VALID,918.559,VALID,0,VALID,100,VALID,-0.0509425,VALID,18.6779,VALID,333,VALID,0,
2008-07-01, 01:14:00,VALID,918.522,VALID,0,VALID,100,VALID,-0.0169808,VALID,18.6125,VALID,333,VALID,0,
2008-07-01, 01:15:00,VALID,918.497,VALID,0,VALID,100,VALID,-0.0509425,VALID,18.5977,VALID,333,VALID,0,
2008-07-01, 01:16:00,VALID,918.472,VALID,0,VALID,100,VALID,-0.0509425,VALID,18.5516,VALID,333,VALID,0,
2008-07-01, 01:17:00,VALID,918.469,VALID,0,VALID,100,VALID,-0.0509425,VALID,18.5285,VALID,333,VALID,0,
2008-07-01, 01:18:00,VALID,918.448,VALID,0,VALID,100,VALID,-0.0849042,VALID,18.5551,INVALID,360,VALID,0,
2008-07-01, 01:19:00,VALID,918.434,VALID,0,VALID,100,VALID,-0.0509425,VALID,18.5259,VALID,333,VALID,0,
2008-07-01, 01:20:00,VALID,918.419,VALID,0,VALID,100,VALID,-0.0169808,VALID,18.4152,VALID,333,VALID,0,
2008-07-01, 01:21:00,VALID,918.414,VALID,0,VALID,100,VALID,-0.0509425,VALID,18.2824,VALID,11,VALID,0,
2008-07-01, 01:22:00,VALID,918.406,VALID,0,VALID,100,VALID,-0.0169808,VALID,18.2275,VALID,22,VALID,0,
2008-07-01, 01:23:00,VALID,918.403,VALID,0,VALID,100,VALID,-0.0679233,VALID,18.2532,VALID,22,VALID,0,
2008-07-01, 01:24:00,VALID,918.39,VALID,0,VALID,100,VALID,-0.0849042,VALID,18.2924,VALID,22,VALID,0.0477431,
2008-07-01, 01:25:00,VALID,918.368,VALID,0,VALID,100,VALID,-0.0509425,VALID,18.3501,VALID,21,VALID,0.703307,
2008-07-01, 01:26:00,VALID,918.337,VALID,0,VALID,100,VALID,-0.0169808,VALID,18.3922,VALID,23,VALID,0.638021,
2008-07-01, 01:27:00,VALID,918.312,VALID,0,VALID,100,VALID,-0.0679233,VALID,18.4541,VALID,28,VALID,0.179688,
2008-07-01, 01:28:00,VALID,918.296,VALID,0,VALID,100,VALID,-0.0509425,VALID,18.4409,VALID,41,VALID,0,
2008-07-01, 01:29:00,VALID,918.27,VALID,0,VALID,100,VALID,-0.0509425,VALID,18.4578,VALID,35,VALID,0,
2008-07-01, 01:30:00,VALID,918.253,VALID,0,VALID,100,VALID,-0.0339617,VALID,18.4471,VALID,29,VALID,0.0522569,
2008-07-01, 01:31:00,VALID,918.23,VALID,0,VALID,100,VALID,-0.101885,VALID,18.4413,VALID,28,VALID,0,
2008-07-01, 01:32:00,VALID,918.206,VALID,0,VALID,100,VALID,-0.0679233,VALID,18.4439,VALID,28,VALID,0,
2008-07-01, 01:33:00,VALID,918.187,VALID,0,VALID,100,VALID,-0.0339617,VALID,18.4766,VALID,357,VALID,0,
2008-07-01, 01:34:00,VALID,918.171,VALID,0,VALID,100,VALID,-0.0849042,VALID,18.509,VALID,343,VALID,0,
2008-07-01, 01:35:00,VALID,918.154,VALID,0,VALID,100,VALID,0,VALID,18.5152,VALID,343,VALID,0,
2008-07-01, 01:36:00,VALID,918.138,VALID,0,VALID,100,VALID,-0.0509425,VALID,18.5092,VALID,343,VALID,0,
2008-07-01, 01:37:00,VALID,918.112,VALID,0,VALID,100,VALID,-0.101885,VALID,18.499,VALID,336,VALID,0.150213,
2008-07-01, 01:38:00,VALID,918.088,VALID,0,VALID,100,VALID,-0.0509425,VALID,18.5481,VALID,340,VALID,0,
2008-07-01, 01:39:00,VALID,918.051,VALID,0,VALID,100,VALID,-0.0509425,VALID,18.4638,VALID,360,VALID,0.155134,
2008-07-01, 01:40:00,VALID,918.049,VALID,0,VALID,100,VALID,-0.0169808,VALID,18.3892,VALID,360,VALID,0.617365,
2008-07-01, 01:41:00,VALID,918.049,VALID,0,VALID,100,VALID,-0.0679233,VALID,18.4573,VALID,359,VALID,0.860709,
2008-07-01, 01:42:00,VALID,918.041,VALID,0,VALID,100,VALID,-0.0679233,VALID,18.4796,VALID,12,VALID,1.05137,
2008-07-01, 01:43:00,VALID,918.04,VALID,0,VALID,100,VALID,-0.0679233,VALID,18.4539,VALID,13,VALID,0.807227,
2008-07-01, 01:44:00,VALID,918.029,VALID,0,VALID,100,VALID,-0.0679233,VALID,18.4508,VALID,10,VALID,0.88058,
2008-07-01, 01:45:00,VALID,918.009,VALID,0,VALID,100,VALID,-0.0169808,VALID,18.4474,VALID,13,VALID,0.416243,
2008-07-01, 01:46:00,VALID,917.988,VALID,0,VALID,100,VALID,0.0509425,VALID,18.4527,VALID,7,VALID,0.840732,
2008-07-01, 01:47:00,VALID,917.985,VALID,0,VALID,100,VALID,0.0169808,VALID,18.4951,VALID,13,VALID,0.813194,
2008-07-01, 01:48:00,VALID,917.964,VALID,0,VALID,100,VALID,0.0169808,VALID,18.4557,VALID,17,VALID,0.618459,
2008-07-01, 01:49:00,VALID,917.944,VALID,0,VALID,100,VALID,0.0509425,VALID,18.4657,VALID,16,VALID,0.585938,
2008-07-01, 01:50:00,VALID,917.934,VALID,0,VALID,100,VALID,0.0679233,VALID,18.4624,VALID,10,VALID,0.0419034,
2008-07-01, 01:51:00,VALID,917.921,VALID,0,VALID,100,VALID,0.0679233,VALID,18.462,VALID,12,VALID,0,
2008-07-01, 01:52:00,VALID,917.899,VALID,0,VALID,100,VALID,0.0509425,VALID,18.436,VALID,14,VALID,0,
2008-07-01, 01:53:00,VALID,917.879,VALID,0,VALID,100,VALID,0.0509425,VALID,18.4203,VALID,13,VALID,0.313262,
2008-07-01, 01:54:00,VALID,917.852,VALID,0,VALID,100,VALID,-0.0509425,VALID,18.4416,VALID,13,VALID,0.361235,
2008-07-01, 01:55:00,VALID,917.834,VALID,0,VALID,100,VALID,-0.101885,VALID,18.4346,VALID,13,VALID,0.00272529,
2008-07-01, 01:56:00,VALID,917.815,VALID,0,VALID,100,VALID,-0.0849042,VALID,18.4319,VALID,16,VALID,0,
2008-07-01, 01:57:00,VALID,917.787,VALID,0,VALID,100,VALID,-0.0339617,VALID,18.4186,VALID,31,VALID,0,
2008-07-01, 01:58:00,VALID,917.775,VALID,0,VALID,100,VALID,-0.0509425,VALID,18.3955,VALID,31,VALID,0,
2008-07-01, 01:59:00,VALID,917.753,VALID,0,VALID,100,VALID,-0.0509425,VALID,18.3825,VALID,31,VALID,0,
2008-07-01, 02:00:00,VALID,917.745,VALID,0,VALID,100,VALID,-0.0509425,VALID,18.3698,VALID,31,VALID,0,
2008-07-01, 02:01:00,VALID,917.727,VALID,0,VALID,100,VALID,-0.0339617,VALID,18.3308,VALID,31,VALID,0,
2008-07-01, 02:02:00,VALID,917.719,VALID,0,VALID,100,VALID,-0.0509425,VALID,18.269,VALID,31,VALID,0,
2008-07-01, 02:03:00,VALID,917.71,VALID,0,VALID,100,VALID,-0.0509425,VALID,18.224,VALID,52,VALID,0,
2008-07-01, 02:04:00,VALID,917.7,VALID,0,VALID,100,VALID,-0.0679233,VALID,18.1721,VALID,142,VALID,0,
2008-07-01, 02:05:00,VALID,917.701,VALID,0,VALID,100,VALID,-0.0509425,VALID,18.1235,VALID,142,VALID,0,
2008-07-01, 02:06:00,VALID,917.692,VALID,0,VALID,100,VALID,-0.0849042,VALID,18.0841,VALID,142,VALID,0,
2008-07-01, 02:07:00,VALID,917.698,VALID,0,VALID,100,VALID,-0.0849042,VALID,18.0549,VALID,142,VALID,0,
2008-07-01, 02:08:00,VALID,917.698,VALID,0,VALID,100,VALID,-0.0169808,VALID,18.0519,VALID,142,VALID,0,
2008-07-01, 02:09:00,VALID,917.703,VALID,0,VALID,100,VALID,-0.0509425,VALID,18.0362,VALID,142,VALID,0,
2008-07-01, 02:10:00,VALID,917.703,VALID,0,VALID,100,VALID,-0.0339617,VALID,17.9931,VALID,142,VALID,0,
2008-07-01, 02:11:00,VALID,917.707,VALID,0,VALID,100,VALID,-0.0339617,VALID,17.9806,VALID,142,VALID,0,
2008-07-01, 02:12:00,VALID,917.704,VALID,0,VALID,100,VALID,-0.0339617,VALID,18.0031,VALID,142,VALID,0,
2008-07-01, 02:13:00,VALID,917.699,VALID,0,VALID,100,VALID,-0.0339617,VALID,18.0357,VALID,142,VALID,0,
2008-07-01, 02:14:00,VALID,917.704,VALID,0,VALID,100,VALID,-0.0339617,VALID,18.0288,VALID,142,VALID,0,
2008-07-01, 02:15:00,VALID,917.696,VALID,0,VALID,100,VALID,-0.0339617,VALID,18.0128,VALID,142,VALID,0,
2008-07-01, 02:16:00,VALID,917.704,VALID,0,VALID,100,VALID,0,VALID,17.938,VALID,142,VALID,0,
2008-07-01, 02:17:00,VALID,917.709,VALID,0,VALID,100,VALID,-0.0339617,VALID,17.8604,VALID,142,VALID,0,
2008-07-01, 02:18:00,VALID,917.701,VALID,0,VALID,100,VALID,-0.0509425,VALID,17.8571,VALID,142,VALID,0,
2008-07-01, 02:19:00,VALID,917.717,VALID,0,VALID,100,VALID,0,VALID,17.8636,VALID,142,VALID,0,
2008-07-01, 02:20:00,VALID,917.719,VALID,0,VALID,100,VALID,-0.0679233,VALID,17.8509,VALID,142,VALID,0,
2008-07-01, 02:21:00,VALID,917.723,VALID,0,VALID,100,VALID,-0.0849042,VALID,17.8349,VALID,142,VALID,0,
2008-07-01, 02:22:00,VALID,917.726,VALID,0,VALID,100,VALID,-0.0679233,VALID,17.8119,VALID,142,VALID,0,
2008-07-01, 02:23:00,VALID,917.725,VALID,0,VALID,100,VALID,-0.0169808,VALID,17.7788,VALID,142,VALID,0,
2008-07-01, 02:24:00,VALID,917.718,VALID,0,VALID,100,VALID,-0.0339617,VALID,17.8018,VALID,142,VALID,0,
2008-07-01, 02:25:00,VALID,917.717,VALID,0,VALID,100,VALID,-0.0339617,VALID,17.9315,VALID,142,VALID,0,
2008-07-01, 02:26:00,VALID,917.696,VALID,0,VALID,100,VALID,-0.0169808,VALID,18.029,VALID,137,VALID,0,
2008-07-01, 02:27:00,VALID,917.687,VALID,0,VALID,100,VALID,-0.0339617,VALID,18.0677,VALID,119,VALID,0,
2008-07-01, 02:28:00,VALID,917.672,VALID,0,VALID,100,VALID,-0.0509425,VALID,18.1196,VALID,119,VALID,0,
2008-07-01, 02:29:00,VALID,917.683,VALID,0,VALID,100,VALID,-0.0679233,VALID,18.149,VALID,119,VALID,0,
2008-07-01, 02:30:00,VALID,917.675,VALID,0,VALID,100,VALID,-0.0169808,VALID,18.1779,VALID,119,VALID,0,
2008-07-01, 02:31:00,VALID,917.69,VALID,0,VALID,100,VALID,-0.0169808,VALID,18.1974,VALID,119,VALID,0,
2008-07-01, 02:32:00,VALID,917.701,VALID,0,VALID,100,VALID,0,VALID,18.1972,VALID,119,VALID,0,
2008-07-01, 02:33:00,VALID,917.711,VALID,0,VALID,100,VALID,-0.0169808,VALID,18.1552,VALID,119,VALID,0,
2008-07-01, 02:34:00,VALID,917.721,VALID,0,VALID,100,VALID,0,VALID,18.0776,VALID,119,VALID,0,
2008-07-01, 02:35:00,VALID,917.729,VALID,0,VALID,100,VALID,0,VALID,17.9477,VALID,119,VALID,0,
2008-07-01, 02:36:00,VALID,917.731,VALID,0,VALID,100,VALID,0,VALID,17.8506,VALID,120,VALID,0,
2008-07-01, 02:37:00,VALID,917.732,VALID,0,VALID,100,VALID,-0.0509425,VALID,17.7696,VALID,120,VALID,0,
2008-07-01, 02:38:00,VALID,917.716,VALID,0,VALID,100,VALID,-0.0339617,VALID,17.7142,VALID,120,VALID,0,
2008-07-01, 02:39:00,VALID,917.716,VALID,0,VALID,100,VALID,-0.0679233,VALID,17.6725,VALID,120,VALID,0,
2008-07-01, 02:40:00,VALID,917.716,VALID,0,VALID,100,VALID,-0.0509425,VALID,17.6558,VALID,120,VALID,0,
2008-07-01, 02:41:00,VALID,917.696,VALID,0,VALID,100,VALID,-0.0169808,VALID,17.5942,VALID,120,VALID,0,
2008-07-01, 02:42:00,VALID,917.682,VALID,0,VALID,100,VALID,-0.0339617,VALID,17.5491,VALID,120,VALID,0,
2008-07-01, 02:43:00,VALID,917.675,VALID,0,VALID,100,VALID,-0.0339617,VALID,17.5426,VALID,120,VALID,0,
2008-07-01, 02:44:00,VALID,917.697,VALID,0,VALID,100,VALID,-0.0509425,VALID,17.5523,VALID,120,VALID,0,
2008-07-01, 02:45:00,VALID,917.695,VALID,0,VALID,100,VALID,-0.101885,VALID,17.5815,VALID,120,VALID,0,
2008-07-01, 02:46:00,VALID,917.709,VALID,0,VALID,100,VALID,-0.0849042,VALID,17.682,VALID,120,VALID,0,
2008-07-01, 02:47:00,VALID,917.702,VALID,0,VALID,100,VALID,-0.0509425,VALID,17.6785,VALID,134,VALID,0.207465,
2008-07-01, 02:48:00,VALID,917.714,VALID,0,VALID,100,VALID,-0.0509425,VALID,17.7214,VALID,136,VALID,0.924361,
2008-07-01, 02:49:00,VALID,917.719,VALID,0,VALID,100,VALID,-0.0679233,VALID,17.8089,VALID,136,VALID,0.383878,
2008-07-01, 02:50:00,VALID,917.718,VALID,0,VALID,100,VALID,-0.0849042,VALID,17.773,VALID,136,VALID,0,
2008-07-01, 02:51:00,VALID,917.723,VALID,0,VALID,100,VALID,-0.0679233,VALID,17.7534,VALID,136,VALID,0,
2008-07-01, 02:52:00,VALID,917.741,VALID,0,VALID,100,VALID,-0.0509425,VALID,17.7536,VALID,136,VALID,0,
2008-07-01, 02:53:00,VALID,917.742,VALID,0,VALID,100,VALID,-0.0849042,VALID,17.7304,VALID,136,VALID,0,
2008-07-01, 02:54:00,VALID,917.756,VALID,0,VALID,100,VALID,-0.0509425,VALID,17.7142,VALID,136,VALID,0,
2008-07-01, 02:55:00,VALID,917.766,VALID,0,VALID,100,VALID,-0.0679233,VALID,17.7052,VALID,136,VALID,0,
2008-07-01, 02:56:00,VALID,917.76,VALID,0,VALID,100,VALID,-0.0339617,VALID,17.6435,VALID,136,VALID,0,
2008-07-01, 02:57:00,VALID,917.754,VALID,0,VALID,100,VALID,-0.0679233,VALID,17.4879,VALID,136,VALID,0,
2008-07-01, 02:58:00,VALID,917.749,VALID,0,VALID,100,VALID,-0.101885,VALID,17.436,VALID,133,VALID,0,
2008-07-01, 02:59:00,VALID,917.748,VALID,0,VALID,100,VALID,-0.0509425,VALID,17.455,VALID,105,VALID,0,
2008-07-01, 03:00:00,VALID,917.755,VALID,0,VALID,100,VALID,-0.0169808,VALID,17.5657,VALID,91,VALID,0,
2008-07-01, 03:01:00,VALID,917.758,VALID,0,VALID,100,VALID,-0.0679233,VALID,17.6593,VALID,91,VALID,0,
2008-07-01, 03:02:00,VALID,917.764,VALID,0,VALID,100,VALID,-0.0339617,VALID,17.7536,VALID,91,VALID,0,
2008-07-01, 03:03:00,VALID,917.766,VALID,0,VALID,100,VALID,-0.0849042,VALID,17.7147,VALID,91,VALID,0,
2008-07-01, 03:04:00,VALID,917.779,VALID,0,VALID,100,VALID,-0.0679233,VALID,17.6853,VALID,91,VALID,0,
2008-07-01, 03:05:00,VALID,917.79,VALID,0,VALID,100,VALID,-0.0509425,VALID,17.7047,VALID,91,VALID,0,
2008-07-01, 03:06:00,VALID,917.795,VALID,0,VALID,100,VALID,-0.0679233,VALID,17.6656,VALID,91,VALID,0,
2008-07-01, 03:07:00,VALID,917.803,VALID,0,VALID,100,VALID,-0.0509425,VALID,17.6072,VALID,91,VALID,0,
2008-07-01, 03:08:00,VALID,917.809,VALID,0,VALID,100,VALID,-0.0509425,VALID,17.5391,VALID,126,VALID,0.291424,
2008-07-01, 03:09:00,VALID,917.827,VALID,0,VALID,100,VALID,-0.0169808,VALID,17.5393,VALID,146,VALID,0.914253,
2008-07-01, 03:10:00,VALID,917.848,VALID,0,VALID,100,VALID,-0.0339617,VALID,17.6299,VALID,146,VALID,0.789773,
2008-07-01, 03:11:00,VALID,917.867,VALID,0,VALID,100,VALID,-0.0169808,VALID,17.6948,VALID,146,VALID,0.474888,
2008-07-01, 03:12:00,VALID,917.868,VALID,0,VALID,100,VALID,-0.0169808,VALID,17.7534,VALID,146,VALID,0.164789,
2008-07-01, 03:13:00,VALID,917.887,VALID,0,VALID,100,VALID,0,VALID,17.7239,VALID,146,VALID,0,
2008-07-01, 03:14:00,VALID,917.877,VALID,0,VALID,100,VALID,-0.0169808,VALID,17.6718,VALID,146,VALID,0,
2008-07-01, 03:15:00,VALID,917.877,VALID,0,VALID,100,VALID,0,VALID,17.6526,VALID,146,VALID,0,
2008-07-01, 03:16:00,VALID,917.866,VALID,0,VALID,100,VALID,-0.0679233,VALID,17.6366,VALID,139,VALID,0,
2008-07-01, 03:17:00,VALID,917.868,VALID,0,VALID,100,VALID,0,VALID,17.6623,VALID,136,VALID,0,
2008-07-01, 03:18:00,VALID,917.845,VALID,0,VALID,100,VALID,-0.0339617,VALID,17.6526,VALID,136,VALID,0,
2008-07-01, 03:19:00,VALID,917.841,VALID,0,VALID,100,VALID,0.0169808,VALID,17.623,VALID,136,VALID,0,
2008-07-01, 03:20:00,VALID,917.827,VALID,0,VALID,100,VALID,0.0169808,VALID,17.5521,VALID,132,VALID,0,
2008-07-01, 03:21:00,VALID,917.829,VALID,0,VALID,100,VALID,0,VALID,17.5259,VALID,86,VALID,0,
2008-07-01, 03:22:00,VALID,917.826,VALID,0,VALID,100,VALID,0,VALID,17.5653,VALID,86,VALID,0,
2008-07-01, 03:23:00,VALID,917.827,VALID,0,VALID,100,VALID,0,VALID,17.5743,VALID,86,VALID,0,
2008-07-01, 03:24:00,VALID,917.823,VALID,0,VALID,100,VALID,0.0169808,VALID,17.6225,VALID,86,VALID,0,
2008-07-01, 03:25:00,VALID,917.824,VALID,0,VALID,100,VALID,0.0169808,VALID,17.6908,VALID,84,VALID,0,
2008-07-01, 03:26:00,VALID,917.823,VALID,0,VALID,100,VALID,0.0169808,VALID,17.8143,VALID,82,VALID,0,
2008-07-01, 03:27:00,VALID,917.805,VALID,0,VALID,100,VALID,0.0169808,VALID,17.8592,VALID,75,VALID,0.0099734,
2008-07-01, 03:28:00,VALID,917.804,VALID,0,VALID,100,VALID,0,VALID,17.8926,VALID,18,VALID,0.695499,
2008-07-01, 03:29:00,VALID,917.801,VALID,0,VALID,100,VALID,0.0169808,VALID,17.8374,VALID,18,VALID,0.91369,
2008-07-01, 03:30:00,VALID,917.816,VALID,0,VALID,100,VALID,-0.0339617,VALID,17.9313,VALID,18,VALID,0.795703,
2008-07-01, 03:31:00,VALID,917.8,VALID,0,VALID,100,VALID,-0.0509425,VALID,18.045,VALID,18,VALID,0.590199,
2008-07-01, 03:32:00,VALID,917.789,VALID,0,VALID,100,VALID,-0.0169808,VALID,18.0251,VALID,18,VALID,0.480741,
2008-07-01, 03:33:00,VALID,917.781,VALID,0,VALID,100,VALID,0,VALID,17.9375,VALID,18,VALID,0.086128,
2008-07-01, 03:34:00,VALID,917.777,VALID,0,VALID,100,VALID,-0.0169808,VALID,18.0093,VALID,341,VALID,0,
2008-07-01, 03:35:00,VALID,917.768,VALID,0,VALID,100,VALID,0,VALID,18.0744,VALID,299,VALID,0,
2008-07-01, 03:36:00,VALID,917.747,VALID,0,VALID,100,VALID,-0.0339617,VALID,18.1293,VALID,299,VALID,0,
2008-07-01, 03:37:00,VALID,917.743,VALID,0,VALID,100,VALID,0,VALID,18.158,VALID,299,VALID,0,
2008-07-01, 03:38:00,VALID,917.729,VALID,0,VALID,100,VALID,0,VALID,18.1321,VALID,299,VALID,0,
2008-07-01, 03:39:00,VALID,917.736,VALID,0,VALID,100,VALID,0,VALID,17.912,VALID,299,VALID,0,
2008-07-01, 03:40:00,VALID,917.724,VALID,0,VALID,100,VALID,-0.0169808,VALID,17.8956,VALID,300,VALID,0.0216619,
2008-07-01, 03:41:00,VALID,917.725,VALID,0,VALID,100,VALID,-0.0509425,VALID,17.9577,VALID,358,VALID,0.561773,
2008-07-01, 03:42:00,VALID,917.727,VALID,0,VALID,100,VALID,-0.0679233,VALID,18.0353,VALID,350,VALID,0.474085,
2008-07-01, 03:43:00,VALID,917.714,VALID,0,VALID,100,VALID,-0.0169808,VALID,18.038,VALID,341,VALID,0,
2008-07-01, 03:44:00,VALID,917.696,VALID,0,VALID,100,VALID,-0.0169808,VALID,18.032,VALID,341,VALID,0,
2008-07-01, 03:45:00,VALID,917.689,VALID,0,VALID,100,VALID,-0.0509425,VALID,18.0093,VALID,341,VALID,0,
2008-07-01, 03:46:00,VALID,917.679,VALID,0,VALID,100,VALID,-0.0339617,VALID,17.9864,VALID,341,VALID,0,
2008-07-01, 03:47:00,VALID,917.681,VALID,0,VALID,100,VALID,0,VALID,17.9702,VALID,341,VALID,0,
2008-07-01, 03:48:00,VALID,917.66,VALID,0,VALID,100,VALID,0,VALID,17.944,VALID,341,VALID,0,
2008-07-01, 03:49:00,VALID,917.658,VALID,0,VALID,100,VALID,-0.0169808,VALID,17.9185,VALID,341,VALID,0,